Terug naar catalogus

STARLINK-3089

ActiefCommunicatieVLEO
NORAD 49166·PAYLOAD·🇺🇸 United States

Gelanceerd Sep 14, 2021 vanaf Vandenberg Space Force Base

Loading…

Volgende Passages (komende 24 uur)

TLE

VersSource: CelesTrak SupGP

Epoch: Sep 14, 2026, 21:15 UTC

1 49166C 21082AN  26257.88590278 -.00045450  00000+0 -38888-2 0  2571
2 49166  70.0017 158.8136 0002961 268.6137 144.1577 14.97550020    19

Volg STARLINK-3089 in realtime met AllMySat

Download on the App Store